Simultaneous Nadir Overpasses (SNOs) Predictions

Prediction of SNOs between AQUA and NOAA-19 Satellite Orbit:

Table of predicted SNOs for the next 14.0 days since TLE Epoch: 3/27/2021
Index Date (AQUA) Time (AQUA) Lat,Lon (AQUA) SZA (AQUA ) Date (NOAA-19) Time (NOAA-19) Lat,Lon (NOAA-19) SZA (NOAA-19 ) Distance(km) Time Diff (sec)
1 03/27/2021 09:34:13 79.04, 12.59 77.29 03/27/2021 09:33:55 79.01, 12.53 77.28 2.91 18
2 03/27/2021 10:23:47 -79.37, 178.16 102.26 03/27/2021 10:24:50 -79.36,-177.28 102.65 93.48 63
3 03/29/2021 15:07:56 -79.03, 109.18 103.60 03/29/2021 15:07:13 -79.00, 109.20 103.62 3.53 43
4 03/29/2021 15:57:22 79.02, -83.10 76.37 03/29/2021 15:58:05 79.05, -83.17 76.38 3.47 43
5 03/31/2021 20:41:31 78.68,-152.23 75.04 03/31/2021 20:40:29 78.63,-156.77 75.42 99.38 62
6 03/31/2021 21:31:05 -79.02, 13.48 104.52 03/31/2021 21:31:23 -79.03, 13.47 104.51 1.56 18
7 04/03/2021 03:04:49 79.00, 110.16 74.59 04/03/2021 03:04:30 79.00, 110.03 74.61 2.85 19
8 04/03/2021 03:54:21 -79.24, -83.71 105.08 04/03/2021 03:55:27 -79.28, -80.41 105.33 68.43 66
9 04/05/2021 08:38:32 -79.00,-153.28 106.27 04/05/2021 08:37:47 -79.00,-153.17 106.26 2.36 45
10 04/05/2021 09:28:00 79.03, 14.16 73.77 04/05/2021 09:28:41 79.03, 14.31 73.74 3.27 41
11 04/07/2021 15:01:42 -79.00, 110.95 107.14 04/07/2021 15:01:59 -78.99, 110.78 107.13 3.66 17
12 04/09/2021 20:35:26 79.00,-152.49 72.03 04/09/2021 20:35:06 78.98,-152.52 72.02 1.96 20



Historial Predications of SNOs between AQUA and NOAA-19
